| time (UTC) | temp C | wind direction | speed KPH | gust KPH | rain 1hr cm | rain 24hr cm | rain mn cm | humidity % | barometer mb |
| 20260503233007 | 13 | 181 | 4.8 | 14.5 | 0.00 | 0.00 | 0.00 | 42 | 1012.3 |
| 20260503231505 | 13 | 138 | 4.8 | 9.7 | 0.00 | 0.00 | 0.00 | 42 | 1012.3 |
| 20260503230018 | 13 | 303 | 4.8 | 14.5 | 0.00 | 0.00 | 0.00 | 43 | 1012.3 |
| 20260503224513 | 13 | 289 | 3.2 | 11.3 | 0.00 | 0.00 | 0.00 | 42 | 1012.4 |
| 20260503223019 | 13 | 245 | 3.2 | 19.3 | 0.00 | 0.00 | 0.00 | 42 | 1012.6 |
| 20260503221504 | 13 | 177 | 4.8 | 16.1 | 0.00 | 0.00 | 0.00 | 41 | 1012.6 |
| 20260503220004 | 14 | 298 | 9.7 | 27.4 | 0.00 | 0.00 | 0.00 | 41 | 1012.6 |
| 20260503214526 | 14 | 191 | 3.2 | 22.5 | 0.00 | 0.00 | 0.00 | 41 | 1012.6 |
| 20260503213016 | 14 | 49 | 4.8 | 16.1 | 0.00 | 0.00 | 0.00 | 40 | 1012.5 |
| 20260503211517 | 14 | 150 | 3.2 | 19.3 | 0.00 | 0.00 | 0.00 | 41 | 1012.5 |
| 20260503210003 | 15 | 333 | 8.0 | 17.7 | 0.00 | 0.00 | 0.00 | 40 | 1012.5 |
| 20260503204508 | 15 | 244 | 3.2 | 14.5 | 0.00 | 0.00 | 0.00 | 41 | 1012.6 |
| 20260503203015 | 15 | 229 | 3.2 | 17.7 | 0.00 | 0.00 | 0.00 | 39 | 1012.7 |
| 20260503201519 | 14 | 319 | 3.2 | 14.5 | 0.00 | 0.00 | 0.00 | 40 | 1012.9 |
| 20260503200026 | 14 | 230 | 3.2 | 19.3 | 0.00 | 0.00 | 0.00 | 41 | 1013.1 |
| 20260503194525 | 15 | 257 | 6.4 | 22.5 | 0.00 | 0.00 | 0.00 | 39 | 1013.3 |
| 20260503193011 | 15 | 209 | 4.8 | 12.9 | 0.00 | 0.00 | 0.00 | 38 | 1013.5 |
| 20260503191532 | 15 | 256 | 4.8 | 19.3 | 0.00 | 0.00 | 0.00 | 41 | 1013.7 |
| 20260503190027 | 15 | 146 | 6.4 | 22.5 | 0.00 | 0.00 | 0.00 | 39 | 1013.8 |
| 20260503184524 | 14 | 323 | 12.9 | 22.5 | 0.00 | 0.00 | 0.00 | 37 | 1013.9 |
| 20260503183029 | 14 | 304 | 11.3 | 19.3 | 0.00 | 0.00 | 0.00 | 38 | 1014.1 |
| 20260503181510 | 14 | 214 | 4.8 | 17.7 | 0.00 | 0.00 | 0.00 | 44 | 1014.2 |
| 20260503180017 | 14 | 322 | 4.8 | 19.3 | 0.00 | 0.00 | 0.00 | 43 | 1014.3 |
| 20260503174521 | 14 | 284 | 8.0 | 20.9 | 0.00 | 0.00 | 0.00 | 41 | 1014.5 |
| 20260503173022 | 14 | 328 | 4.8 | 14.5 | 0.00 | 0.00 | 0.00 | 44 | 1014.7 |
| 20260503171526 | 13 | 243 | 4.8 | 27.4 | 0.00 | 0.00 | 0.00 | 45 | 1014.9 |
| 20260503081533 | 1 | 226 | 0.0 | 1.6 | 0.00 | 0.33 | 0.00 | 81 | 1016.1 |
| 20260503071523 | 1 | 139 | 0.0 | 3.2 | 0.00 | 0.33 | 0.00 | 80 | 1016.1 |
| 20260503054533 | 1 | 112 | 0.0 | 1.6 | 0.00 | 0.38 | 0.00 | 79 | 1016.4 |
| 20260503053031 | 1 | 213 | 0.0 | 1.6 | 0.00 | 0.38 | 0.00 | 78 | 1016.5 |
| 20260503051515 | 2 | 216 | 0.0 | 1.6 | 0.00 | 0.38 | 0.00 | 76 | 1016.4 |
| 20260503050020 | 2 | 195 | 0.0 | 1.6 | 0.00 | 0.38 | 0.00 | 75 | 1016.5 |
| 20260503044536 | 2 | 218 | 0.0 | 1.6 | 0.00 | 0.38 | 0.00 | 73 | 1016.6 |
| 20260503043033 | 2 | 216 | 0.0 | 1.6 | 0.00 | 0.41 | 0.00 | 71 | 1016.6 |
| 20260503041526 | 2 | 157 | 0.0 | 0.0 | 0.00 | 0.41 | 0.00 | 70 | 1016.6 |
| 20260503040018 | 3 | 278 | 0.0 | 1.6 | 0.00 | 0.41 | 0.00 | 70 | 1016.8 |
| 20260503034520 | 3 | 280 | 0.0 | 1.6 | 0.00 | 0.41 | 0.41 | 71 | 1016.7 |
| 20260503033024 | 3 | 281 | 0.0 | 1.6 | 0.00 | 0.41 | 0.41 | 70 | 1016.9 |
| 20260503031525 | 3 | 281 | 0.0 | 1.6 | 0.00 | 0.41 | 0.41 | 69 | 1017.0 |
| 20260503030034 | 3 | 281 | 0.0 | 0.0 | 0.00 | 0.41 | 0.41 | 68 | 1017.0 |
| 20260503024520 | 3 | 281 | 0.0 | 1.6 | 0.00 | 0.41 | 0.41 | 68 | 1017.1 |
| 20260503023021 | 3 | 289 | 0.0 | 1.6 | 0.00 | 0.41 | 0.41 | 68 | 1017.3 |
| 20260503021525 | 3 | 302 | 0.0 | 0.0 | 0.00 | 0.41 | 0.41 | 69 | 1017.2 |
| 20260503020026 | 3 | 302 | 0.0 | 0.0 | 0.00 | 0.41 | 0.41 | 68 | 1017.2 |
| 20260503014526 | 3 | 302 | 0.0 | 1.6 | 0.00 | 0.41 | 0.41 | 68 | 1017.2 |
| 20260503013010 | 3 | 305 | 0.0 | 0.0 | 0.00 | 0.41 | 0.41 | 67 | 1017.2 |
| 20260503011506 | 3 | 305 | 0.0 | 0.0 | 0.00 | 0.41 | 0.41 | 66 | 1017.2 |
| 20260503010008 | 4 | 305 | 0.0 | 0.0 | 0.00 | 0.41 | 0.41 | 65 | 1017.0 |
| 20260503004513 | 4 | 305 | 0.0 | 0.0 | 0.00 | 0.41 | 0.41 | 65 | 1017.1 |
| 20260503003019 | 4 | 305 | 0.0 | 1.6 | 0.00 | 0.41 | 0.41 | 64 | 1017.0 |
| 20260503001506 | 5 | 278 | 0.0 | 1.6 | 0.00 | 0.41 | 0.41 | 64 | 1017.0 |
| 20260503000006 | 5 | 271 | 0.0 | 1.6 | 0.00 | 0.41 | 0.41 | 63 | 1016.9 |
| 20260502234508 | 5 | 269 | 0.0 | 1.6 | 0.00 | 0.41 | 0.41 | 62 | 1016.7 |